This is the latest recevied weather packets stored in our database for station/object N5YHM-13. If no packets are shown the sender has not sent any weather packets the latest 10 day(s).
| Time | Temp. | Humidity | Pressure | Rain* | Wind** | Luminosity | Snow |
|---|---|---|---|---|---|---|---|
| 1787856527 | 27.78° C | 87% | 1017.1 hPa | 0 mm | - | 32 W/m² | - |
| 1787856218 | 27.78° C | 87% | 1017 hPa | 0 mm | - | 58 W/m² | - |
| 1787855917 | 27.22° C | 85% | 1017 hPa | 0 mm | - | 66 W/m² | - |
| 1787855612 | 27.22° C | 86% | 1016.9 hPa | 1.78 mm | - | 32 W/m² | - |
| 1787855307 | 27.22° C | 86% | 1017.2 hPa | 0 mm | - | 39 W/m² | - |
| 1787855003 | 27.22° C | 86% | 1017.2 hPa | 0 mm | - | 35 W/m² | - |
| 1787854699 | 27.22° C | 88% | 1017 hPa | 0 mm | - | 48 W/m² | - |
| 1787854398 | 27.78° C | 85% | 1016.8 hPa | 0 mm | - | 31 W/m² | - |
| 1787854093 | 27.78° C | 86% | 1017 hPa | 0 mm | - | 27 W/m² | - |
| 1787853793 | 28.33° C | 84% | 1016.9 hPa | 1.27 mm | - | 52 W/m² | - |
| 1787853491 | 28.33° C | 85% | 1016.8 hPa | 1.27 mm | - | 74 W/m² | - |
| 1787853186 | 27.78° C | 85% | 1016.7 hPa | 0 mm | - | 33 W/m² | - |
| 1787852885 | 27.78° C | 85% | 1016.8 hPa | 0 mm | - | 31 W/m² | - |
| 1787852581 | 27.78° C | 87% | 1016.8 hPa | 0 mm | - | 22 W/m² | - |
| 1787852279 | 27.78° C | 88% | 1016.4 hPa | 0 mm | - | 25 W/m² | - |
| 1787851974 | 27.78° C | 86% | 1016.6 hPa | 0 mm | - | 21 W/m² | - |
| 1787851673 | 27.22° C | 86% | 1016.7 hPa | 1.78 mm | - | 28 W/m² | - |
| 1787851372 | 27.22° C | 90% | 1017 hPa | 1.78 mm | - | 35 W/m² | - |
| 1787851068 | 26.67° C | 92% | 1017.1 hPa | 0 mm | - | 19 W/m² | - |
| 1787850763 | 26.11° C | 93% | 1017.1 hPa | 0 mm | - | 25 W/m² | - |
| 1787850459 | 25.56° C | 96% | 1017.1 hPa | 0 mm | - | 21 W/m² | - |
| 1787850154 | 25.56° C | 99% | 1017.3 hPa | 0 mm | - | 25 W/m² | - |
| 1787849854 | 25.56° C | 98% | 1017.3 hPa | 0 mm | - | 23 W/m² | - |
| 1787849549 | 25.56° C | 99% | 1017.4 hPa | 1.27 mm | - | 21 W/m² | - |
| 1787849248 | 25° C | 99% | 1017.5 hPa | 1.27 mm | - | 21 W/m² | - |
* Rain latest hour (hover to see other rain measurements)
** Current wind speed in m/s (hover to see current wind gust speed)